Regional Weather Roundup
Issued by NWS

Home | Current Version | Previous Version | Graphics & Text | Print | Product List | Glossary On
Versions: 1 2 3 4 5 6 7 8 9 10 11 12 13 14 15 16 17 18 19 20 21 22 23 24 25 26 27 28 29 30 31 32 33 34 35 36 37 38 39 40 41 42 43 44 45 46 47 48 49 50
000
ASUS43 KLMK 231810
RWRKY
KENTUCKY REGIONAL WEATHER ROUNDUP
NATIONAL WEATHER SERVICE LOUISVILLE KY
200 PM EDT TUE AUG 23 2016

NOTE "FAIR" INDICATES FEW OR NO CLOUDS BELOW 12,000 FEET
WITH NO SIGNIFICANT WEATHER AND/OR OBSTRUCTIONS TO VISIBILITY.

KYZ001>023-026-027-061>063-070>075-231900-
WESTERN AND SOUTH CENTRAL KENTUCKY

CITY           SKY/WX    TMP DP  RH WIND       PRES   REMARKS
PADUCAH        CLOUDY    81  67  62 S9        30.22S
HENDERSON      CLOUDY    79  61  53 SE6       30.22S
OWENSBORO      MOSUNNY   80  63  56 S6        30.24F
HOPKINSVILLE   MOSUNNY   82  65  57 S5        30.23F
BOWLING GREEN  SUNNY     82  61  48 VRB6      30.25F
GLASGOW        MOSUNNY   82  63  52 S7        30.26S
$$

KYZ024-025-028>034-038-045-046-053-231900-
NORTH CENTRAL KENTUCKY

CITY           SKY/WX    TMP DP  RH WIND       PRES   REMARKS
LOUISVILLE/SDF PTSUNNY   82  59  45 VRB3      30.25F
LOUISVILLE/LOU SUNNY     82  59  45 VRB3      30.26F
FORT KNOX      SUNNY     81  60  48 S9        30.24F
$$

KYZ035>037-039>044-047>052-055>060-089>105-231900-
NORTHEAST KENTUCKY

CITY           SKY/WX    TMP DP  RH WIND       PRES   REMARKS
LEXINGTON      SUNNY     80  57  45 SE6       30.28F
COVINGTON      PTSUNNY   80  59  48 VRB5      30.28F
FRANKFORT      SUNNY     81  57  43 SE6       30.26F
$$

KYZ054-064>069-076>088-106>120-231900-
SOUTHEAST KENTUCKY

CITY           SKY/WX    TMP DP  RH WIND       PRES   REMARKS
JACKSON        SUNNY     80  60  50 VRB3      30.30F
LONDON         SUNNY     80  57  45 SW5       30.29F
SOMERSET       SUNNY     79  59  50 W3        30.28F
MIDDLESBORO    SUNNY     82  60  46 S6        30.29F
MONTICELLO     MOCLDY   N/A N/A N/A W13G18    30.29F
$$





USA.gov is the U.S. government's official web portal to all federal, state and local government web resources and services.